Date,TemperatureHighF,TemperatureAvgF,TemperatureLowF,DewpointHighF,DewpointAvgF,DewpointLowF,HumidityHigh,HumidityAvg,HumidityLow,PressureMaxIn,PressureMinIn,WindSpeedMaxMPH,WindSpeedAvgMPH,GustSpeedMaxMPH,PrecipitationSumIn
2013-10-1,85,65,51,68,60,51,100,86,51,30.17,29.89,5,2,5,0.00
2013-10-2,85,68,57,70,63,57,100,85,51,30.13,29.92,7,2,7,0.00
2013-10-3,87,70,57,72,64,57,100,84,51,30.15,29.94,12,2,12,0.00
2013-10-4,88,71,60,72,66,60,100,87,51,30.14,29.92,9,1,9,0.00
2013-10-5,90,74,61,74,67,61,100,84,47,30.13,29.90,10,2,10,0.00
2013-10-6,82,71,62,76,69,61,100,94,72,30.08,29.87,16,5,16,0.00
2013-10-7,75,69,64,75,69,64,100,100,100,30.01,29.84,20,5,20,0.22
2013-10-8,64,58,56,64,53,50,100,83,74,30.23,29.99,21,11,21,0.03
2013-10-9,60,56,53,60,56,53,100,96,87,30.22,30.12,21,10,21,0.22
2013-10-10,59,54,53,59,54,53,100,100,100,30.12,29.97,20,8,21,0.02
2013-10-11,64,60,57,64,60,57,100,100,100,29.99,29.92,5,2,12,0.07
2013-10-12,67,63,60,67,63,60,100,100,100,30.09,29.97,7,2,12,0.00
2013-10-13,65,62,60,65,62,60,100,100,100,30.21,30.09,9,5,15,0.15
2013-10-14,63,61,56,63,61,56,100,100,100,30.26,30.19,9,6,17,0.06
2013-10-15,68,60,52,65,59,52,100,97,85,30.24,30.05,9,3,15,0.00
2013-10-16,70,64,59,67,63,59,100,98,88,30.08,29.94,5,1,9,0.00
2013-10-17,75,66,58,70,64,58,100,95,75,30.01,29.81,5,1,7,0.00
2013-10-18,69,62,53,67,57,50,100,85,58,30.05,29.87,7,2,12,0.00
2013-10-19,70,62,58,69,62,58,100,100,96,30.03,29.81,6,2,12,0.01
2013-10-20,63,53,44,59,48,42,100,84,50,30.22,29.94,7,2,14,0.01
2013-10-21,68,52,39,54,47,39,100,86,51,30.26,29.99,5,1,9,0.01
2013-10-22,64,56,49,62,56,49,100,99,92,30.08,29.85,3,0,7,0.00
2013-10-23,65,57,47,58,50,38,100,81,48,30.05,29.67,8,3,12,0.01
2013-10-24,58,49,36,42,38,35,100,67,48,30.27,30.05,10,3,10,0.00
2013-10-25,54,44,34,38,35,30,100,74,44,30.47,30.25,16,4,16,0.00
2013-10-26,59,42,27,42,34,27,100,77,41,30.47,30.09,12,2,12,0.00
2013-10-27,67,52,43,46,43,39,100,73,45,30.20,29.98,10,2,10,0.00
2013-10-28,72,55,42,57,51,42,100,87,52,30.28,30.11,7,1,7,0.00
2013-10-29,72,58,50,60,55,50,100,91,63,30.34,30.17,9,2,9,0.00
2013-10-30,71,60,52,65,58,52,100,94,72,30.32,30.10,9,2,9,0.00
2013-10-31,74,64,55,66,60,55,100,88,65,30.20,29.91,17,4,17,0.00